Weather History for KLCH - September, 2013

Change the Weather History Date:

Friday, September 6, 2013

  Actual Average Record
Temperature  
Mean Temperature 83 °F 81 °F  
Max Temperature 91 °F 90 °F 101 °F (1912)
Min Temperature 75 °F 72 °F 57 °F (2011)
Degree Days  
Heating Degree Days 0 0  
Month to date heating degree days 0 0  
Since 1 July heating degree days 0 0  
Cooling Degree Days 18 16  
Month to date cooling degree days 116 99  
Year to date cooling degree days 2321 2228  
Growing Degree Days 33 (Base 50)    
Moisture  
Dew Point 74 °F    
Average Humidity 77    
Maximum Humidity 94    
Minimum Humidity 59    
Precipitation  
Precipitation 0.01 in 0.19 in 2.52 in (1983)
Month to date precipitation 0.72 1.12  
Year to date precipitation 39.72 39.34  
Snow  
Snow 0.00 in 0.00 in 0.00 in ()
Month to date snowfall 0.0 0.0  
Since 1 July snowfall 0.0 0.0  
Since 1 September snowfall 0.0 0.0  
Snow Depth 0.00 in    
Sea Level Pressure  
Sea Level Pressure 30.05 in    
Wind  
Wind Speed 4 mph (East)    
Max Wind Speed 12 mph    
Max Gust Speed 15 mph    
Visibility 10 miles    
Events Thunderstorm    
T = Trace of Precipitation, MM = Missing Value Source: NWS Daily Summary

Daily Weather History Graph

Daily Weather History Graph

Search for Another Location

Airport or City:

Trip Planner

Search our weather history database for the weather conditions in past years. The results will help you decide how hot, cold, wet, or windy it might be!

Date:

Astronomy

Sep. 06, 2013 Rise Set
Actual Time 6:52 AM CDT 7:29 PM CDT
Civil Twilight 6:28 AM CDT 7:53 PM CDT
Nautical Twilight 6:00 AM CDT 8:21 PM CDT
Astronomical Twilight 5:31 AM CDT 8:50 PM CDT
Moon 7:56 AM CDT (9/6) 8:04 PM CDT (9/6)
Length of Visible Light 13h 24m
Length of Day
12h 36m
New Moon, 2% of the Moon is Illuminated
Sep 6
New Moon
Sep 12
First Quarter
Sep 19
Full
Sep 26
Last Quarter
Oct 4
New

Hourly Weather History & Observations

Time (CDT) Temp. Heat Index Dew Point Humidity Pressure Visibility Wind Dir Wind Speed Gust Speed Precip Events Conditions
12:53 AM 75.9 °F - 73.0 °F 91% 30.07 in 10.0 mi Calm Calm - N/A   Clear
1:53 AM 75.9 °F - 73.0 °F 91% 30.06 in 10.0 mi Calm Calm - N/A   Clear
2:53 AM 77.0 °F - 73.0 °F 88% 30.05 in 10.0 mi Calm Calm - N/A   Clear
3:53 AM 75.9 °F - 73.0 °F 91% 30.05 in 10.0 mi NNE 3.5 mph - N/A   Clear
4:53 AM 75.9 °F - 73.0 °F 91% 30.06 in 10.0 mi NE 3.5 mph - N/A   Partly Cloudy
5:53 AM 75.0 °F - 73.0 °F 94% 30.06 in 10.0 mi NE 3.5 mph - N/A   Clear
6:53 AM 75.0 °F - 72.0 °F 90% 30.08 in 10.0 mi NNE 5.8 mph - N/A   Partly Cloudy
7:53 AM 77.0 °F - 73.0 °F 88% 30.11 in 10.0 mi ENE 4.6 mph - N/A   Partly Cloudy
8:53 AM 81.0 °F 86.7 °F 75.0 °F 82% 30.11 in 10.0 mi ENE 6.9 mph - N/A   Clear
9:53 AM 84.9 °F 94.1 °F 75.9 °F 74% 30.11 in 10.0 mi East 9.2 mph - N/A   Clear
10:53 AM 87.1 °F 96.3 °F 75.0 °F 67% 30.12 in 10.0 mi East 9.2 mph - N/A   Mostly Cloudy
11:53 AM 89.1 °F 97.0 °F 73.0 °F 59% 30.10 in 10.0 mi ENE 4.6 mph - N/A   Partly Cloudy
12:53 PM 90.0 °F 97.9 °F 73.0 °F 57% 30.09 in 10.0 mi East 8.1 mph - N/A   Partly Cloudy
1:53 PM 87.1 °F 96.3 °F 75.0 °F 67% 30.07 in 10.0 mi SW 8.1 mph - N/A   Mostly Cloudy
2:53 PM 86.0 °F 93.8 °F 73.9 °F 67% 30.05 in 10.0 mi Calm Calm - 0.01 in   Overcast
3:26 PM 82.4 °F 89.5 °F 75.2 °F 79% 30.01 in 10.0 mi West 3.5 mph - N/A Thunderstorm Scattered Clouds
3:41 PM 82.4 °F 88.2 °F 73.4 °F 74% 30.00 in 10.0 mi SSW 3.5 mph - N/A   Scattered Clouds
3:53 PM 82.0 °F 88.6 °F 75.0 °F 79% 30.02 in 10.0 mi Calm Calm - N/A   Partly Cloudy
4:53 PM 90.0 °F 97.9 °F 73.0 °F 57% 30.01 in 10.0 mi South 6.9 mph - N/A   Clear
5:53 PM 88.0 °F 96.5 °F 73.9 °F 63% 30.01 in 10.0 mi SW 6.9 mph - N/A   Clear
6:53 PM 86.0 °F 95.1 °F 75.0 °F 70% 30.02 in 10.0 mi South 4.6 mph - N/A   Clear
7:53 PM 82.9 °F 89.4 °F 73.9 °F 74% 30.02 in 10.0 mi Calm Calm - N/A   Clear
8:53 PM 81.0 °F 86.7 °F 75.0 °F 82% 30.03 in 10.0 mi Calm Calm - N/A   Clear
9:53 PM 79.0 °F - 75.0 °F 88% 30.02 in 10.0 mi Calm Calm - N/A   Clear
10:53 PM 79.0 °F - 75.0 °F 88% 30.02 in 10.0 mi Calm Calm - N/A   Clear
11:53 PM 78.1 °F - 75.0 °F 90% 30.02 in 10.0 mi Calm Calm - N/A   Clear